Regional Weather Roundup
Issued by NWS Upton, NY

Current Version | Previous Version | Text Only | Print | Product List | Glossary On
Versions: 1 2 3 4 5 6 7 8 9 10 11 12 13 14 15 16 17 18 19 20 21 22 23 24 25 26 27
000
ASUS41 KOKX 260509
RWROKX

REGIONAL WEATHER ROUNDUP
NATIONAL WEATHER SERVICE NEW YORK NY
100 AM EDT WED JUL 26 2017

NOTE: "FAIR" INDICATES FEW OR NO CLOUDS BELOW 12,000 FEET WITH NO
SIGNIFICANT WEATHER AND/OR OBSTRUCTIONS TO VISIBILITY.

NYZ071-072-176-178-NJZ106-104-260600-
NEW YORK CITY METRO AREA

CITY           SKY/WX    TMP DP  RH WIND       PRES   REMARKS
Central Park   CLOUDY    67  57  70 NE7       30.25S
Bronx Bot Gard   N/A     64  55  72 NW2       30.23F
LaGuardia APRT CLOUDY    67  59  75 NE9       30.22S
Kennedy INTL   CLOUDY    68  61  78 NE7       30.23S
Breezy Point     N/A     66 N/A N/A NE9         N/A
Newark/Liberty CLOUDY    68  58  70 NE10      30.22R
Teterboro      CLOUDY    67  57  70 NE3       30.22R
$$

NYZ177-179-078>081-260600-
LONG ISLAND NEW YORK

CITY           SKY/WX    TMP DP  RH WIND       PRES   REMARKS
Jones Beach      N/A     64 N/A N/A E12         N/A
Matinecock PT    N/A     66 N/A N/A NE13        N/A
Farmingdale    CLOUDY    64  59  83 E5        30.23R
MacArthur/ISP  PTCLDY    64  59  83 NE3       30.22S
Shirley        CLEAR     61  59  93 CALM      30.23R
Mt Sinai Harb    N/A    N/A N/A N/A NE3         N/A
Westhampton    CLEAR     56  53  90 CALM      30.23S
East Hampton   FAIR      55  54  96 CALM      30.22S
Montauk          N/A     63  59  87 N7        30.22F
$$

NYZ052-065-067-260600-
HUDSON VALLEY

CITY           SKY/WX    TMP DP  RH WIND       PRES   REMARKS
White Plains   MOCLDY    64  56  75 VRB3      30.23S
Larchmont Harb   N/A     64 N/A N/A N10         N/A
Croton O-T Hud   N/A     64 N/A N/A MISG        N/A
Newburgh       CLOUDY    64  61  88 E6        30.26R
Montgomery     CLOUDY    64  61  90 N5        30.24S
Poughkeepsie   CLOUDY    64  59  83 CALM      30.23S
Albany         CLOUDY    63  59  87 CALM      30.25S
$$

NJZ001-105-106-008-010-013-015-019>022-104-260600-
NEW JERSEY

CITY           SKY/WX    TMP DP  RH WIND       PRES   REMARKS
Newark/Liberty CLOUDY    68  58  70 NE10      30.22R
Teterboro      CLOUDY    67  57  70 NE3       30.22R
Caldwell       CLOUDY    66  59  78 NE5       30.23S
Somerville     CLOUDY    66  63  90 E3        30.21R
Linden         NOT AVBL
Perth Amboy      N/A     66 N/A N/A NE5         N/A
Sussex         CLOUDY    63  62  97 NE3       30.24R
Andover          N/A     64  60  87 CALM      30.24R
Trenton        CLOUDY    67  64  90 CALM      30.22R
Millville      CLOUDY    68  66  93 E6        30.20S
Atlantic City  CLOUDY    69  63  81 E5        30.20S
Wrightstown    CLOUDY    65  63  95 CALM      30.19S
Toms River     CLOUDY    65  64  97 CALM      30.22S
Belmar         CLOUDY    67  61  81 NE3       30.23R
$$

PAZ047>061-062-071-260600-
EASTERN PENNSYLVANIA

CITY           SKY/WX    TMP DP  RH WIND       PRES   REMARKS
Philadelphia   CLOUDY    68  64  87 E7        30.22R
Allentown      HVY RAIN  66  62  87 N6        30.22R FOG
Scranton       CLOUDY    64  58  80 W5        30.25R
$$

CTZ002-004>006-009-010-012-RIZ004-006-007-MAZ004-011-015-260600-
SOUTHERN NEW ENGLAND
 IN CT

CITY           SKY/WX    TMP DP  RH WIND       PRES   REMARKS
Bradley INTL   PTCLDY    58  56  93 CALM      30.23S
Hartford       CLEAR     59  57  93 CALM      30.23S
Danbury        CLEAR     60  57  89 CALM      30.25S
Wtrbury/Oxford CLEAR     57  52  82 CALM      30.24S
Bridgeport     CLEAR     63  57  81 N3        30.23R
Meriden        CLEAR     58  57  97 CALM      30.23S
New Haven      CLEAR     60  56  86 CALM      30.23S
Chester        NOT AVBL
Groton         CLEAR     58  55  90 N5        30.21F
Wilimantic     CLEAR     58  55  90 CALM      30.23F

 IN RI

CITY           SKY/WX    TMP DP  RH WIND       PRES   REMARKS
Providence     CLEAR     58  57  97 NW7       30.22F
Block Island   CLEAR     60  57  89 N7        30.21S
Westerly       CLEAR     58  56  93 N3        30.22F
 IN MA

CITY           SKY/WX    TMP DP  RH WIND       PRES   REMARKS
Boston         CLEAR     61  54  77 W6        30.22R
Worcester      CLEAR     57  54  89 NW10      30.24S
Westfield      CLEAR     57  56  96 N6        30.24R
Provincetown   CLEAR     58  56  93 N7        30.20S
Nantucket      CLEAR     59  57  93 N8        30.19R
$$

ANZ330-335-338-340-345-350-353-355-260600-
COASTAL MARINE OBSERVATIONS


STATION/POSITION TIME  SKY/WX   TEMP    WIND        PRES    VSBY  WAVE
                                AIR SEA DIR/SP/G                  HT/PER
                 (UTC)          (F)     (DEG/KT/KT) (MB)    (MI)  (FT/S)
NY HARB ENTRANCE 0350            68 71   60/ 10/ 12 1022.5          3/ 6
20 S FIRE ISLAND 0350            67 73   60/ 12/ 16 1022.3          3/ 5
GREAT SOUTH BAY  0430            66 75   20/  4/  8   N/A
23 SSW MONTAUK P 0350            65 72              1023.0          3/ 5
15 E BARNEGAT LI 0430               70                N/A           3/ 6
HUDSON CANYON    0350            66 74   70/ 14/ 16 1021.5          3/ 5
KINGS POINT      0430            67 71   90/  5/  9 1023.2
EXECUTION ROCKS  0445            68      60/ 10/ 14   N/A
CENTRAL LI SOUND NOT AVBL
EASTERN LI SOUND NOT AVBL
ROBBINS REEF     0430                    80/ 10/ 12 1023.8
$$


>>>>>>>>>>>>>>>>>>>>>>>>>>>> KEY <<<<<<<<<<<<<<<<<<<<<<<<<<<
>                                                          <
>     SKY/WX - Sky Condition/Present Weather               <
>     TMP    - Temperature in Fahrenheit                   <
>     DP     - Dew Point in Fahrenheit                     <
>     RH     - Relative Humidity in Percent                <
>     WIND   - Direction (from) and Speed in MPH           <
>     PRES   - Mean Sea Level Pressure (inches of Hg)      <
>     WCI    - Wind Chill Index                            <
>     VSB    - VISIBILITY IN MILES                         <
>     HX     - HEAT INDEX                                  <
>     TC     - TEMPERATURE IN CELSIUS                      <
>     VRB    - VARIABLE WIND DIRECTION                     <
>                                                          <
>>>>>>>>>>>>>>>>>>>>>>>>>>>> KEY <<<<<<<<<<<<<<<<<<<<<<<<<<<




USA.gov is the U.S. government's official web portal to all federal, state and local government web resources and services.